Showing default

OPS 4467 A, 812

Orbit data source: Space-Track

OPS 4467 A, 812 is an American payload satellite in SSO that was launched on Thu, 18 Jun 1964 UTC via a THOR SLV-2 AGENA D launch vehicle from the Air Force Western Test Range (AFWTR). Payload-class satellites include a variety of spacecraft equipped with specific instruments for various scientific and technological missions. These include communications satellites like Starlink; space stations such as the ISS; scientific satellites like the Hubble; Earth observation satellites from companies like Planet Labs, Umbra, and HawkEye 360; GPS; miniature CubeSats for education and research; and military/defense satellites.

Loading next visibility...
Identifier
812, 1964-031A
Orbit
SSO
Last TLE update
14 hours ago
Origin
Manufacturer
RCA/East Windsor
Mission
Defense Weather
Bus & Motor
P35, Unknown motor
Mass
50 kg wet, 50 kg dry
Launch date (UTC)
1964-06-18 (61 years ago)
Launch vehicle
THOR SLV-2 AGENA D
Launch site
Air Force Western Test Range (AFWTR)
Object type
Payload
Rocket body
Debris
Shape & HBR
Cyl, 0.6 m
Radar Cross Section
0.377 m², Medium (>0.1 m² and < 1m²)

Expand to show TLE details & history

TLE from 14 hours ago
0 OPS 4467 A
1 00812U 64031A   25129.24593422  .00000106  00000-0  68642-4 0  9992
2 00812  99.7719 233.5401 0006197 134.6758 225.4923 14.24463230158785
Epoch: 2025-05-09T05:54Z
Definitive object data (Epoch: 2025-05-09T05:54:08.716Z)
Latitude
-0.00005°
Longitude
-82.30104°
Altitude
816.307 km
Speed
7.443 km/s
True Right ascension
15h 34m 09s
True Declination
0° 00' 00"
Sunlit
Object was in full shadow at TLE epoch
Visualization TLE readout
Latitude
49.08113°
Longitude
109.7502°
Altitude
813.527 km
Speed
7.454 km/s
Apparent Right ascension
12h 43m 37s
Apparent Declination
77° 20' 21"
Sunlit
Object is in daylight
Visualization observer readout
Local Sidereal Time
04:10:51
Azimuth
11.653° NNE
Elevation
31.475°
Doppler factor
1
Orbital elements
Apogee altitude
811.957 km
Perigee altitude
803.052 km
Semi-major axis
7,185.642 km
Eccentricity
0.0006197
Inclination
99.7719°
RAAN
233.5401°
Arg. of periapsis
134.6758°
True anomaly
225.44168°
Mean anomaly
225.4923°
Eccentric anomaly
225.46699°
Mean motion
3.56324 °/min
BSTAR
0.000068642
Orbital period
101.03 mins
Loading maneuver chart data...
Loading SW <> Apogee altitude chart data...
Loading historical data...
Loading historical data...
Loading historical data...
Loading historical data...
Loading historical data...
Loading historical data...
Loading historical data...
Other satellites on launch #31 in the year 1964 (1964-06-18 UTC)

OPS 4467 A Visibility forecast

Observer location: undefined°, undefined°

Span
Click to sort rows by Start time (UTC) header in descending order
Start Az.
Max El. time (UTC)
Max El. Az.
Max El.
End time (UTC)
End Az.
7 mins2025-05-09 19:59:48.213Z11.758° NNE2025-05-09 20:02:48.213Z219.644° SW44.02°2025-05-09 20:06:48.213Z199.294° SSW
6 mins2025-05-10 05:40:48.213Z94.385° ESE2025-05-10 05:42:48.213Z65.179° ENE20.423°2025-05-10 05:46:48.213Z14.743° NNE
8 mins2025-05-10 07:18:48.213Z191.543° SSW2025-05-10 07:22:48.213Z275.223° WNW36.115°2025-05-10 07:26:48.213Z330.935° NNW
9 mins2025-05-10 19:34:48.213Z26.812° NE2025-05-10 19:38:48.213Z106.065° ESE40.434°2025-05-10 19:43:48.213Z181.668° SSW
|